Port Huron, MI

9:59 AM EDT on July 21, 2017 (GMT -0400)
Saint Clair County International

Weather History for KPHN - March, 2013

Change the Weather History Date:

Thursday, March 14, 2013

  Actual Average (KMTC) Record (KMTC)
Temperature  
Mean Temperature 30 °F -  
Max Temperature 37 °F 44 °F 73 °F (1990)
Min Temperature 23 °F 27 °F 11 °F (1950)
Degree Days  
Heating Degree Days 35    
Moisture  
Dew Point 18 °F    
Average Humidity 64    
Maximum Humidity 86    
Minimum Humidity 48    
Precipitation  
Precipitation 0.00 in - - ()
Sea Level Pressure  
Sea Level Pressure 30.16 in    
Wind  
Wind Speed 8 mph (WNW)    
Max Wind Speed 15 mph    
Max Gust Speed 22 mph    
Visibility 10 miles    
Events      
Averages and records for this station are not official NWS values.
T = Trace of Precipitation, MM = Missing Value Source: NWS Daily Summary

Daily Weather History Graph

Daily Weather History Graph

Search for Another Location

Airport or City:

Trip Planner

Search our weather history database for the weather conditions in past years. The results will help you decide how hot, cold, wet, or windy it might be!

Date:

Astronomy

Mar. 14, 2013 Rise Set
Actual Time 7:43 AM EDT 7:35 PM EDT
Civil Twilight 7:15 AM EDT 8:03 PM EDT
Nautical Twilight 6:42 AM EDT 8:36 PM EDT
Astronomical Twilight 6:09 AM EDT 9:10 PM EDT
Moon 8:51 AM EDT (3/14) 10:56 PM EDT (3/14)
Length of Visible Light 12h 48m
Length of Day
11h 52m
Waxing Crescent, 9% of the Moon is Illuminated
Mar 14
Waxing Crescent
Mar 19
First Quarter
Mar 27
Full
Apr 3
Last Quarter
Apr 10
New

Hourly Weather History & Observations

Time (EDT) Temp. Windchill Dew Point Humidity Pressure Visibility Wind Dir Wind Speed Gust Speed Precip Events Conditions
12:16 AM 28.4 °F 17.0 °F 12.2 °F 51% 30.14 in 10.0 mi NW 15.0 mph 21.9 mph N/A   Clear
12:36 AM 28.4 °F 17.0 °F 14.0 °F 55% 30.14 in 10.0 mi NW 15.0 mph 19.6 mph N/A   Clear
12:56 AM 28.4 °F 18.0 °F 14.0 °F 55% 30.14 in 10.0 mi NW 12.7 mph 20.7 mph N/A   Clear
1:16 AM 28.4 °F 18.5 °F 14.0 °F 55% 30.14 in 10.0 mi NW 11.5 mph 17.3 mph N/A   Clear
1:36 AM 28.4 °F 20.4 °F 15.8 °F 59% 30.14 in 10.0 mi NW 8.1 mph 17.3 mph N/A   Scattered Clouds
1:56 AM 28.4 °F 18.0 °F 15.8 °F 59% 30.15 in 10.0 mi NW 12.7 mph 18.4 mph N/A   Scattered Clouds
2:16 AM 28.4 °F 21.2 °F 15.8 °F 59% 30.15 in 10.0 mi WNW 6.9 mph - N/A   Mostly Cloudy
2:36 AM 26.6 °F 16.2 °F 15.8 °F 64% 30.16 in 10.0 mi NW 11.5 mph 17.3 mph N/A   Scattered Clouds
2:56 AM 26.6 °F 16.8 °F 15.8 °F 64% 30.16 in 10.0 mi NW 10.4 mph - N/A   Clear
3:16 AM 26.6 °F 17.5 °F 15.8 °F 64% 30.16 in 10.0 mi NW 9.2 mph 17.3 mph N/A   Clear
3:36 AM 26.6 °F 16.8 °F 15.8 °F 64% 30.16 in 10.0 mi NW 10.4 mph - N/A   Clear
3:56 AM 26.6 °F 19.1 °F 15.8 °F 64% 30.16 in 10.0 mi WNW 6.9 mph - N/A   Scattered Clouds
4:16 AM 26.6 °F 19.1 °F 15.8 °F 64% 30.16 in 10.0 mi WNW 6.9 mph - N/A   Scattered Clouds
4:36 AM 24.8 °F 16.1 °F 15.8 °F 69% 30.17 in 10.0 mi WNW 8.1 mph - N/A   Scattered Clouds
4:56 AM 24.8 °F 16.1 °F 15.8 °F 69% 30.17 in 10.0 mi WNW 8.1 mph - N/A   Clear
5:16 AM 24.8 °F 17.9 °F 15.8 °F 69% 30.17 in 10.0 mi WNW 5.8 mph - N/A   Clear
5:36 AM 24.8 °F 19.1 °F 15.8 °F 69% 30.17 in 10.0 mi WNW 4.6 mph - N/A   Clear
5:56 AM 24.8 °F 20.5 °F 15.8 °F 69% 30.17 in 10.0 mi West 3.5 mph - N/A   Clear
6:16 AM 24.8 °F 19.1 °F 17.6 °F 74% 30.17 in 10.0 mi West 4.6 mph - N/A   Scattered Clouds
6:36 AM 24.8 °F 19.1 °F 17.6 °F 74% 30.18 in 10.0 mi West 4.6 mph - N/A   Scattered Clouds
6:56 AM 24.8 °F - 17.6 °F 74% 30.18 in 10.0 mi Calm Calm - N/A   Clear
7:16 AM 23.0 °F - 17.6 °F 80% 30.18 in 10.0 mi Calm Calm - N/A   Clear
7:36 AM 23.0 °F - 17.6 °F 80% 30.18 in 10.0 mi Calm Calm - N/A   Clear
7:56 AM 23.0 °F - 17.6 °F 80% 30.19 in 10.0 mi Calm Calm - N/A   Scattered Clouds
8:16 AM 23.0 °F 18.4 °F 17.6 °F 80% 30.19 in 10.0 mi West 3.5 mph - N/A   Mostly Cloudy
8:36 AM 26.6 °F 21.2 °F 17.6 °F 69% 30.19 in 10.0 mi West 4.6 mph - N/A   Overcast
8:56 AM 26.6 °F 20.0 °F 19.4 °F 74% 30.20 in 10.0 mi West 5.8 mph - N/A   Overcast
9:16 AM 28.4 °F 21.2 °F 19.4 °F 69% 30.21 in 10.0 mi West 6.9 mph - N/A   Overcast
9:36 AM 26.6 °F - 19.4 °F 74% 30.22 in - Calm Calm - N/A   Overcast
9:56 AM 26.6 °F 20.0 °F 19.4 °F 74% 30.22 in - West 5.8 mph - N/A   Overcast
10:16 AM 26.6 °F 18.2 °F 19.4 °F 74% 30.22 in 10.0 mi WNW 8.1 mph - N/A   Overcast
10:36 AM 26.6 °F 16.2 °F 19.4 °F 74% 30.22 in 10.0 mi WNW 11.5 mph - N/A   Overcast
10:56 AM 26.6 °F 15.2 °F 17.6 °F 69% 30.22 in 10.0 mi WNW 13.8 mph - N/A   Overcast
11:16 AM 28.4 °F 19.7 °F 17.6 °F 64% 30.22 in 10.0 mi WNW 9.2 mph 16.1 mph N/A   Overcast
11:36 AM 28.4 °F 20.4 °F 17.6 °F 64% 30.22 in 10.0 mi NW 8.1 mph - N/A   Overcast
11:56 AM 28.4 °F 19.7 °F 17.6 °F 64% 30.22 in 10.0 mi WNW 9.2 mph 16.1 mph N/A   Overcast
12:16 PM 30.2 °F 20.8 °F 19.4 °F 64% 30.21 in 10.0 mi WNW 11.5 mph 19.6 mph N/A   Overcast
12:36 PM 30.2 °F 20.2 °F 19.4 °F 64% 30.21 in 10.0 mi WNW 12.7 mph - N/A   Overcast
12:56 PM 30.2 °F 23.4 °F 19.4 °F 64% 30.21 in 10.0 mi West 6.9 mph 18.4 mph N/A   Mostly Cloudy
1:16 PM 32.0 °F 23.0 °F 19.4 °F 60% 30.20 in 10.0 mi WNW 11.5 mph 16.1 mph N/A   Mostly Cloudy
1:37 PM 32.0 °F 23.6 °F 19.4 °F 60% 30.20 in 10.0 mi NW 10.4 mph 16.1 mph N/A   Mostly Cloudy
1:56 PM 32.0 °F 24.2 °F 19.4 °F 60% 30.19 in 10.0 mi WNW 9.2 mph 16.1 mph N/A   Scattered Clouds
2:17 PM 32.0 °F 23.6 °F 21.2 °F 64% 30.19 in 10.0 mi WNW 10.4 mph 20.7 mph N/A   Scattered Clouds
2:36 PM 33.8 °F 28.6 °F 21.2 °F 60% 30.17 in 10.0 mi NNW 5.8 mph 21.9 mph N/A   Scattered Clouds
2:56 PM 33.8 °F 27.0 °F 21.2 °F 60% 30.17 in 10.0 mi NW 8.1 mph 17.3 mph N/A   Scattered Clouds
3:16 PM 33.8 °F 26.4 °F 19.4 °F 56% 30.16 in 10.0 mi West 9.2 mph 16.1 mph N/A   Clear
3:36 PM 33.8 °F 27.0 °F 21.2 °F 60% 30.16 in 10.0 mi West 8.1 mph - N/A   Clear
3:56 PM 35.6 °F 29.2 °F 21.2 °F 56% 30.15 in 10.0 mi NW 8.1 mph - N/A   Clear
4:16 PM 35.6 °F 29.2 °F 19.4 °F 52% 30.15 in 10.0 mi West 8.1 mph - N/A   Clear
4:37 PM 35.6 °F 29.2 °F 19.4 °F 52% 30.15 in 10.0 mi WNW 8.1 mph - N/A   Clear
4:56 PM 35.6 °F 28.0 °F 21.2 °F 56% 30.14 in 10.0 mi WNW 10.4 mph 16.1 mph N/A   Clear
5:16 PM 37.4 °F 30.8 °F 19.4 °F 48% 30.14 in 10.0 mi WNW 9.2 mph - N/A   Clear
5:36 PM 35.6 °F 28.6 °F 17.6 °F 48% 30.14 in 10.0 mi WNW 9.2 mph - N/A   Clear
5:56 PM 35.6 °F 30.7 °F 19.4 °F 52% 30.13 in 10.0 mi WNW 5.8 mph - N/A   Clear
6:16 PM 35.6 °F 31.7 °F 17.6 °F 48% 30.12 in 10.0 mi West 4.6 mph - N/A   Clear
6:36 PM 35.6 °F 28.6 °F 17.6 °F 48% 30.12 in 10.0 mi WNW 9.2 mph - N/A   Clear
6:56 PM 35.6 °F 31.7 °F 19.4 °F 52% 30.11 in 10.0 mi WNW 4.6 mph - N/A   Clear
7:16 PM 35.6 °F - 19.4 °F 52% 30.11 in 10.0 mi Calm Calm - N/A   Clear
7:36 PM 33.8 °F - 19.4 °F 56% 30.12 in 10.0 mi Calm Calm - N/A   Clear
7:56 PM 33.8 °F - 19.4 °F 56% 30.12 in 10.0 mi Calm Calm - N/A   Clear
8:16 PM 33.8 °F - 17.6 °F 52% 30.12 in 10.0 mi Calm Calm - N/A   Clear
8:36 PM 30.2 °F - 19.4 °F 64% 30.11 in 10.0 mi Calm Calm - N/A   Clear
8:56 PM 28.4 °F - 21.2 °F 74% 30.10 in 10.0 mi Calm Calm - N/A   Clear
9:16 PM 26.6 °F - 23.0 °F 86% 30.10 in 10.0 mi Calm Calm - N/A   Clear
9:36 PM 26.6 °F 22.6 °F 21.2 °F 80% 30.10 in 10.0 mi SSW 3.5 mph - N/A   Clear
9:56 PM 28.4 °F 23.3 °F 19.4 °F 69% 30.09 in 10.0 mi South 4.6 mph - N/A   Clear
10:16 PM 28.4 °F 24.6 °F 19.4 °F 69% 30.08 in 10.0 mi SSW 3.5 mph - N/A   Clear
10:36 PM 26.6 °F 22.6 °F 21.2 °F 80% 30.07 in 10.0 mi SSW 3.5 mph - N/A   Clear
10:56 PM 26.6 °F 22.6 °F 19.4 °F 74% 30.06 in 10.0 mi South 3.5 mph - N/A   Clear
11:16 PM 28.4 °F 24.6 °F 19.4 °F 69% 30.06 in 10.0 mi SSW 3.5 mph - N/A   Clear
11:36 PM 26.6 °F 22.6 °F 19.4 °F 74% 30.05 in 10.0 mi SSW 3.5 mph - N/A   Clear
11:56 PM 28.4 °F 23.3 °F 19.4 °F 69% 30.04 in 10.0 mi SSW 4.6 mph - N/A   Clear